When you browse on this site, cookies collect data to enhance your experience and personalize the content and advertising you see.
Visit our Privacy Policy to learn more. By continuing to use the site, you agree to this use of cookies and data.
  • In Romania
  • List of Countries
  • For 7 days
  • Water Temperature
  • Weather Map
  • Weather Widgets
  • user-avatar
    Login

    Hourly Weather Ustroń

    Today, 24 August, Saturday

    Time Temperature Precipitation Wind Pressure Humidity
    00:00 +18°C° 0 mm 1 mps 733 mmHg 93%
    01:00 +18°C° 0 mm 1 mps 733 mmHg 93%
    02:00 +18°C° 0 mm 1 mps 732 mmHg 93%
    03:00 +18°C° 0 mm 1 mps 732 mmHg 93%
    04:00 +16°C° 0 mm 1 mps 732 mmHg 93%
    05:00 +18°C° 0 mm 1 mps 732 mmHg 90%
    06:00 +19°C° 0 mm 1 mps 732 mmHg 87%
    07:00 +20°C° 0 mm 1 mps 732 mmHg 84%
    08:00 +22°C° 0 mm 1 mps 733 mmHg 76%
    09:00 +24°C° 0 mm 1 mps 733 mmHg 69%
    10:00 +26°C° 0 mm 2 mps 733 mmHg 62%
    11:00 +27°C° 0.1 mm 2 mps 733 mmHg 60%
    12:00 +28°C° 0.1 mm 2 mps 732 mmHg 59%
    13:00 +28°C° 0.1 mm 2 mps 732 mmHg 57%
    14:00 +27°C° 0.9 mm 2 mps 732 mmHg 63%
    15:00 +27°C° 0.9 mm 3 mps 732 mmHg 69%
    16:00 +26°C° 0.9 mm 3 mps 731 mmHg 75%
    17:00 +24°C° 0.1 mm 3 mps 731 mmHg 79%
    18:00 +23°C° 0.1 mm 2 mps 731 mmHg 82%
    19:00 +21°C° 0.1 mm 2 mps 731 mmHg 86%
    20:00 +20°C° 0 mm 2 mps 731 mmHg 87%
    21:00 +20°C° 0 mm 2 mps 731 mmHg 88%
    22:00 +19°C° 0 mm 2 mps 731 mmHg 89%
    23:00 +19°C° 0 mm 2 mps 731 mmHg 89%

    Tomorrow, 25 August, Sunday

    Time Temperature Precipitation Wind Pressure Humidity
    00:00 +20°C° 0 mm 1 mps 731 mmHg 90%
    01:00 +19°C° 0 mm 1 mps 731 mmHg 90%
    02:00 +19°C° 0 mm 1 mps 731 mmHg 90%
    03:00 +19°C° 0 mm 1 mps 730 mmHg 91%
    04:00 +18°C° 0 mm 1 mps 730 mmHg 91%
    05:00 +19°C° 0 mm 1 mps 730 mmHg 88%
    06:00 +20°C° 0 mm 1 mps 730 mmHg 86%
    07:00 +21°C° 0 mm 1 mps 730 mmHg 83%
    08:00 +23°C° 0 mm 1 mps 731 mmHg 76%
    09:00 +25°C° 0 mm 1 mps 731 mmHg 69%
    10:00 +27°C° 0 mm 1 mps 731 mmHg 62%
    11:00 +28°C° 0 mm 1 mps 731 mmHg 59%
    12:00 +28°C° 0 mm 1 mps 731 mmHg 57%
    13:00 +29°C° 0 mm 2 mps 731 mmHg 54%
    14:00 +29°C° 0.5 mm 2 mps 730 mmHg 59%
    15:00 +28°C° 0.5 mm 2 mps 730 mmHg 63%
    16:00 +27°C° 0.5 mm 2 mps 730 mmHg 67%
    17:00 +26°C° 0.1 mm 2 mps 730 mmHg 72%
    18:00 +24°C° 0.1 mm 1 mps 730 mmHg 77%
    19:00 +23°C° 0.1 mm 1 mps 730 mmHg 82%
    20:00 +22°C° 0 mm 1 mps 730 mmHg 83%
    21:00 +22°C° 0 mm 1 mps 730 mmHg 85%
    22:00 +21°C° 0 mm 1 mps 730 mmHg 86%
    23:00 +21°C° 0 mm 1 mps 730 mmHg 86%

    Day after tomorrow, 26 August, Monday

    Time Temperature Precipitation Wind Pressure Humidity
    00:00 +21°C° 0 mm 1 mps 730 mmHg 86%
    01:00 +20°C° 0 mm 1 mps 730 mmHg 86%
    02:00 +20°C° 0 mm 1 mps 730 mmHg 86%
    03:00 +20°C° 0 mm 1 mps 729 mmHg 87%
    04:00 +19°C° 0 mm 1 mps 729 mmHg 87%
    05:00 +21°C° 0 mm 1 mps 729 mmHg 84%
    06:00 +22°C° 0 mm 1 mps 730 mmHg 80%
    07:00 +23°C° 0 mm 1 mps 730 mmHg 77%
    08:00 +25°C° 0 mm 1 mps 730 mmHg 69%
    09:00 +27°C° 0 mm 1 mps 730 mmHg 61%
    10:00 +27°C° 0 mm 0 mps 731 mmHg 53%
    11:00 +30°C° 0 mm 1 mps 731 mmHg 50%
    12:00 +31°C° 0 mm 1 mps 731 mmHg 47%
    13:00 +32°C° 0 mm 1 mps 731 mmHg 44%
    14:00 +31°C° 0.1 mm 1 mps 730 mmHg 46%
    15:00 +31°C° 0.1 mm 1 mps 730 mmHg 49%
    16:00 +30°C° 0.1 mm 1 mps 730 mmHg 52%
    17:00 +28°C° 0.1 mm 1 mps 729 mmHg 59%
    18:00 +26°C° 0.1 mm 1 mps 729 mmHg 65%
    19:00 +24°C° 0.1 mm 1 mps 729 mmHg 72%
    20:00 +24°C° 0.1 mm 1 mps 729 mmHg 74%
    21:00 +23°C° 0.1 mm 1 mps 729 mmHg 76%
    22:00 +22°C° 0.1 mm 1 mps 729 mmHg 77%
    23:00 +22°C° 0.3 mm 1 mps 729 mmHg 78%

    27 August, Tuesday

    Time Temperature Precipitation Wind Pressure Humidity
    00:00 +22°C° 0.3 mm 1 mps 729 mmHg 79%
    01:00 +22°C° 0.3 mm 1 mps 729 mmHg 80%
    02:00 +21°C° 0.5 mm 1 mps 729 mmHg 80%
    03:00 +21°C° 0.5 mm 1 mps 729 mmHg 81%
    04:00 +21°C° 0.5 mm 1 mps 729 mmHg 81%
    05:00 +22°C° 0.4 mm 1 mps 729 mmHg 80%
    06:00 +23°C° 0.4 mm 1 mps 730 mmHg 78%
    07:00 +24°C° 0.4 mm 1 mps 730 mmHg 76%
    08:00 +26°C° 0 mm 1 mps 730 mmHg 69%
    09:00 +26°C° 0 mm 0 mps 730 mmHg 61%
    10:00 +27°C° 0 mm 0 mps 730 mmHg 54%
    11:00 +30°C° 0 mm 1 mps 730 mmHg 50%
    12:00 +31°C° 0 mm 1 mps 730 mmHg 47%
    13:00 +32°C° 0 mm 1 mps 730 mmHg 43%
    14:00 +32°C° 0.1 mm 1 mps 730 mmHg 45%
    15:00 +31°C° 0.1 mm 1 mps 730 mmHg 48%
    16:00 +31°C° 0.1 mm 1 mps 729 mmHg 50%
    17:00 +29°C° 0 mm 1 mps 729 mmHg 57%
    18:00 +27°C° 0 mm 1 mps 729 mmHg 65%
    19:00 +25°C° 0 mm 1 mps 729 mmHg 72%
    20:00 +24°C° 0.1 mm 1 mps 729 mmHg 73%
    21:00 +24°C° 0.1 mm 1 mps 729 mmHg 74%
    22:00 +23°C° 0.1 mm 2 mps 729 mmHg 75%
    23:00 +23°C° 0.1 mm 1 mps 729 mmHg 76%

    28 August, Wednesday

    Time Temperature Precipitation Wind Pressure Humidity
    00:00 +22°C° 0.1 mm 1 mps 729 mmHg 76%
    01:00 +22°C° 0.1 mm 1 mps 729 mmHg 77%
    02:00 +22°C° 0.3 mm 1 mps 729 mmHg 78%
    03:00 +22°C° 0.3 mm 1 mps 729 mmHg 78%
    04:00 +21°C° 0.3 mm 1 mps 728 mmHg 79%
    05:00 +23°C° 0 mm 1 mps 729 mmHg 76%
    06:00 +24°C° 0 mm 1 mps 729 mmHg 74%
    07:00 +25°C° 0 mm 1 mps 729 mmHg 72%
    08:00 +27°C° 0 mm 1 mps 729 mmHg 64%
    09:00 +29°C° 0 mm 1 mps 729 mmHg 55%
    10:00 +31°C° 0 mm 1 mps 729 mmHg 47%
    11:00 +31°C° 0 mm 1 mps 729 mmHg 44%
    12:00 +32°C° 0 mm 1 mps 729 mmHg 42%
    13:00 +32°C° 0 mm 1 mps 728 mmHg 39%
    14:00 +32°C° 0.1 mm 1 mps 728 mmHg 44%
    15:00 +31°C° 0.1 mm 1 mps 728 mmHg 48%
    16:00 +31°C° 0.1 mm 1 mps 727 mmHg 52%
    17:00 +29°C° 0 mm 1 mps 727 mmHg 57%
    18:00 +27°C° 0 mm 1 mps 727 mmHg 63%
    19:00 +25°C° 0 mm 1 mps 727 mmHg 68%
    20:00 +25°C° 0.1 mm 2 mps 727 mmHg 70%
    21:00 +24°C° 0.1 mm 2 mps 727 mmHg 71%
    22:00 +23°C° 0.1 mm 2 mps 727 mmHg 73%
    23:00 +23°C° 0.3 mm 1 mps 727 mmHg 74%

    29 August, Thursday

    Time Temperature Precipitation Wind Pressure Humidity
    00:00 +22°C° 0.3 mm 1 mps 726 mmHg 75%
    01:00 +22°C° 0.3 mm 1 mps 726 mmHg 76%
    02:00 +22°C° 0.3 mm 1 mps 726 mmHg 77%
    03:00 +21°C° 0.3 mm 1 mps 726 mmHg 78%
    04:00 +21°C° 0.3 mm 1 mps 726 mmHg 79%
    05:00 +22°C° 0.2 mm 1 mps 726 mmHg 77%
    06:00 +23°C° 0.2 mm 1 mps 726 mmHg 75%
    07:00 +24°C° 0.2 mm 1 mps 726 mmHg 74%
    08:00 +26°C° 0 mm 1 mps 726 mmHg 65%
    09:00 +28°C° 0 mm 1 mps 727 mmHg 56%
    10:00 +29°C° 0 mm 0 mps 727 mmHg 47%
    11:00 +31°C° 0 mm 1 mps 727 mmHg 45%
    12:00 +31°C° 0 mm 1 mps 727 mmHg 43%
    13:00 +31°C° 0 mm 1 mps 727 mmHg 42%
    14:00 +30°C° 0.3 mm 1 mps 726 mmHg 46%
    15:00 +29°C° 0.3 mm 1 mps 726 mmHg 51%
    16:00 +29°C° 0.3 mm 1 mps 726 mmHg 55%
    17:00 +26°C° 0.8 mm 1 mps 726 mmHg 64%
    18:00 +24°C° 0.8 mm 1 mps 725 mmHg 72%
    19:00 +21°C° 0.8 mm 2 mps 725 mmHg 81%
    20:00 +20°C° 0.3 mm 2 mps 726 mmHg 81%
    21:00 +21°C° 0.3 mm 1 mps 726 mmHg 81%
    22:00 +21°C° 0.3 mm 1 mps 726 mmHg 81%
    23:00 +21°C° 0 mm 1 mps 726 mmHg 81%
    Show more